User: anonymous   Login
Location: Unspecified
(0.0000°N, 0.0000°E)
Time: 18:53:02
(UTC+00:00)
Language:

Alouette 1 - Orbit

View from above orbital plane
View from above orbital plane
View from above satellite
View from above satellite

Ground track
Ground track

The orbit data is extracted from the following two-line orbital elements,

1   424U 62049A   16240.82994616 +.00000048 +00000-0 +45052-4 0  9991
2   424 080.4674 197.1744 0023928 109.9698 267.4375 13.69062248690921
Epoch (UTC): 27 August 2016 19:55:07
Eccentricity: 0.0023928
inclination: 80.4674°
perigee height: 985 km
apogee height: 1020 km
right ascension of ascending node: 197.1744°
argument of perigee: 109.9698°
revolutions per day: 13.69062248
mean anomaly at epoch: 267.4375°
orbit number at epoch: 69092

The dashed part of the orbit path shows where the satellite is in the earth's shadow,  

DLR